Regional Weather Roundup
Issued by NWS

Home | Current Version | Previous Version | Text Only | Print | Product List | Glossary Off
Versions: 1 2 3 4 5 6 7 8 9 10 11 12 13 14 15 16 17 18 19 20 21 22 23 24 25 26 27 28 29 30 31 32 33 34 35 36 37 38 39 40 41 42 43 44 45 46 47 48 49 50

000
ASUS43 KLSX 280159
RWRMO

WEATHER SUMMARY FOR MISSOURI
NATIONAL WEATHER SERVICE SPRINGFIELD MO
900 PM CDT WED MAY 27 2015

NOTE: "FAIR" INDICATES FEW OR NO CLOUDS BELOW 12,000 FEET WITH NO
       SIGNIFICANT WEATHER AND/OR OBSTRUCTIONS TO VISIBILITY.
       CURRENT SKY AND/OR WEATHER CONDITIONS ARE NOT AVAILABLE FOR
       CHILLICOTHE AND FARMINGTON.

MOZ001>031-035>038-043-044-053-054-280300-
...NORTHERN AND WESTERN MISSOURI...

CITY           SKY/WX    TMP DP  RH WIND       PRES   REMARKS
KANSAS CTY INT MOCLDY    73  54  51 SE9       30.07R
KANSAS C DTWN  MOCLDY    77  53  43 SE6       30.05S
LEE`S SUMMIT   PTCLDY    73  54  51 SE3       30.07S HAZE
ST JOSEPH      PTCLDY    73  55  53 SE6       30.05F
KIRKSVILLE     PTCLDY    66  61  84 CALM      30.10R

$$
MOZ066>068-077>081-088>096-101>105-280300-
...SOUTHWEST MISSOURI...

CITY           SKY/WX    TMP DP  RH WIND       PRES   REMARKS
SPRINGFIELD    CLEAR     75  63  66 E7        30.08R
JOPLIN         PTCLDY    74  67  78 E5        30.06R

$$
MOZ032>034-039>042-045>050-055>058-069>072-280300-
...CENTRAL MISSOURI...

CITY           SKY/WX    TMP DP  RH WIND       PRES   REMARKS
COLUMBIA       CLEAR     72  61  68 E3        30.10R
JEFFERSON CITY CLEAR     70  60  70 CALM      30.08R
ROLLA          CLEAR     67  60  78 CALM      30.09R
SEDALIA        CLEAR     73  57  57 E3        30.09R
WHITEMAN AFB   PTCLDY    70  61  73 SE5       30.07R
OSAGE BEACH    CLEAR     68  59  73 CALM      30.10R

$$
MOZ051-052-059>065-280300-
...EAST CENTRAL MISSOURI...

CITY           SKY/WX    TMP DP  RH WIND       PRES   REMARKS
ST LOUIS INTL  PTCLDY    76  57  51 N6        30.09R
SPIRIT OF STL  CLEAR     67  62  84 CALM      30.08R
ST CHARLES     CLEAR     69  63  81 N6        30.09R

$$
MOZ072>076-082>087-097>100-106>115-280300-
...SOUTH CENTRAL AND SOUTHEAST MISSOURI...

CITY           SKY/WX    TMP DP  RH WIND       PRES   REMARKS
CAPE GIRARDEAU MOCLDY    72  70  93 SE7       30.09R
FARMINGTON     MOCLDY    73  64  73 E5        30.13S
POPLAR BLUFF   MOCLDY    73  69  87 SE5       30.07R
WEST PLAINS    CLOUDY    70  64  81 CALM      30.11R

$$



USA.gov is the U.S. government's official web portal to all federal, state and local government web resources and services.